Flag for United Kingdom Weather past 2 weeks in Luton, England, United Kingdom

Now
52 °F

Scattered clouds.


Feels Like: 47 °F
Forecast: 41 / 57 °F
Wind: 16 mph from Northwest

Location: Luton Airport

Current Time: May 29, 2015 at 4:07:27 PM

Latest Report: May 29, 2015 at 3:20 PM


Visibility: N/A

Pressure: 29.68 "Hg

Humidity: 88%

Dew point: 48 °F

Location of LutonLocation

Historic Weather in Luton — Graph

°F

Luton temperature yesterday

Maximum temperature yesterday: 61 °F (at 2:20 PM)
Minimum temperature yesterday: 48 °F (at 11:20 PM)
Average temperature yesterday: 55 °F

Past Weeks' High & Low Weather Summary

 TemperatureHumidityPressure
High66 °F (May 21, 3:20 PM)100% (May 14, 3:20 PM)30.33 "Hg (May 14, 3:20 PM)
Low41 °F (May 19, 2:20 AM)39% (May 28, 3:20 PM)29.53 "Hg (May 18, 12:50 PM)
Average53 °F76%30.07 "Hg
* Reported May 14 3:20 PM — May 29 3:20 PM, Luton, Weather by CustomWeather, © 2015

Note: Actual official high and low records may vary slightly from our data, if they occured in-between our weather recording intervals... More about our weather records

Advertising

Luton weather history for previous 24 hours

 ConditionsComfort  
Time TempWeatherWind HumidityBarometerVisibility
3:20 PM
Fri, May 29
52 °FScattered clouds.16 mph88%29.68 "HgN/A
2:20 PM54 °FPartly sunny.18 mph82%29.65 "HgN/A
1:50 PM52 °FScattered clouds.17 mph88%29.65 "HgN/A
1:20 PM50 °FScattered clouds.15 mph88%29.65 "HgN/A
12:50 PM50 °FBroken clouds.16 mph88%29.65 "HgN/A
12:20 PM50 °FDrizzle. Partly sunny.15 mph100%29.65 "HgN/A
11:50 AM50 °FRain. Partly sunny.16 mph94%29.65 "Hg4 mi
11:20 AM48 °FRain. Partly sunny.12 mph100%29.65 "Hg4 mi
10:50 AM48 °FRain. Partly sunny.14 mph94%29.68 "Hg5 mi
10:20 AM50 °FRain. Broken clouds.13 mph88%29.68 "Hg4 mi
9:50 AM50 °FPartly sunny.10 mph82%29.71 "HgN/A
9:20 AM50 °FScattered clouds.12 mph82%29.71 "HgN/A
8:50 AM50 °FPassing clouds.10 mph82%29.74 "HgN/A
8:20 AM50 °FPassing clouds.10 mph82%29.74 "HgN/A
7:50 AM48 °FScattered clouds.12 mph87%29.77 "HgN/A
7:20 AM48 °FPassing clouds.8 mph87%29.77 "HgN/A
6:50 AM46 °FSunny.7 mph93%29.80 "Hg10 mi
6:20 AM46 °FPassing clouds.7 mph93%29.80 "HgN/A
5:50 AM45 °FPassing clouds.6 mph93%29.80 "HgN/A
5:20 AM45 °FClear.3 mph93%29.80 "Hg10 mi
4:50 AM46 °FClear.5 mph87%29.83 "Hg10 mi
4:20 AM46 °FClear.3 mph87%29.83 "Hg10 mi
3:50 AM46 °FClear.5 mph87%29.83 "Hg10 mi
3:20 AM46 °FClear.3 mph87%29.86 "Hg10 mi
2:50 AM46 °FClear.5 mph87%29.86 "Hg10 mi
2:20 AM46 °FClear.9 mph87%29.86 "Hg10 mi
1:50 AM46 °FClear.9 mph87%29.86 "Hg10 mi
1:20 AM48 °FClear.10 mph82%29.89 "Hg10 mi
12:50 AM48 °FClear.9 mph82%29.89 "Hg10 mi
12:20 AM50 °FClear.12 mph76%29.92 "Hg10 mi
11:50 PM
Thu, May 28
48 °FClear.9 mph76%29.92 "Hg10 mi
11:20 PM48 °FCool.10 mph76%29.92 "HgN/A
10:50 PM50 °FClear.9 mph76%29.92 "Hg10 mi
10:20 PM50 °FClear.9 mph76%29.92 "Hg10 mi
9:50 PM50 °FSunny.9 mph71%29.92 "Hg10 mi
9:20 PM54 °FPassing clouds.8 mph54%29.92 "HgN/A
8:50 PM55 °FSunny.10 mph47%29.92 "Hg10 mi
8:20 PM57 °FSunny.13 mph41%29.92 "Hg10 mi
7:50 PM57 °FSunny.16 mph44%29.92 "Hg10 mi
7:20 PM59 °FPassing clouds.14 mph45%29.92 "HgN/A
6:50 PM59 °FSunny.16 mph42%29.92 "Hg10 mi
6:20 PM59 °FSunny.16 mph45%29.92 "Hg10 mi
5:50 PM59 °FSunny.15 mph45%29.92 "Hg10 mi
5:20 PM61 °FPassing clouds.16 mph45%29.92 "HgN/A
4:50 PM61 °FPassing clouds.15 mph42%29.95 "HgN/A
4:20 PM59 °FSunny.16 mph48%29.95 "Hg10 mi
Weather by CustomWeather, © 2015

See weather overviewHow to use our weather pages